User: anonymous   Login
Location: Eaton Estates
(41.3089°N, 82.0057°W)
Time: 03:56:11
(UTC+00:00)
Language:

NOSS 2-2 (D) - Orbit

View from above orbital plane
View from above orbital plane
View from above satellite
View from above satellite

Ground track
Ground track

The orbit data is extracted from the following two-line orbital elements,

1 21808U 91076D   21263.18450832 0.00000300  00000-0  46606-4 0    09
2 21808  63.3164  30.2668 0874000  44.8324 315.1676 13.41602509    03
Epoch (UTC): 20 September 2021 04:25:41
Eccentricity: 0.0874000
inclination: 63.3164°
perigee height: 449 km
apogee height: 1757 km
right ascension of ascending node: 30.2668°
argument of perigee: 44.8324°
revolutions per day: 13.41602509
mean anomaly at epoch: 315.1676°
orbit number at epoch: 0

The dashed part of the orbit path shows where the satellite is in the earth's shadow,  

DLR